THORAD AGENA D DEB, 5347

Orbit data source: Space-Track

THORAD AGENA D DEB, 5347 is space debris in SSO originally from a launch on Wed, 08 Apr 1970 UTC launched from the Air Force Western Test Range (AFWTR). Debris objects in space refer to the collection of defunct objects orbiting the Earth. Examples of debris include non-operational satellites, rocket bodies, and fragments generated from explosions, collisions, or faulty payload assembly.

Loading next visibility...
Identifier
5347, 1970-025KL
Orbit
SSO
Country
Flag of USUS
Related business
Manufacturer
Unknown
Mission
Spacecraft
Bus & Motor
Unknown
Mass
Unknown
Launch date (UTC)
1970-04-08 (56 years ago)
Launch vehicle
Unknown
Launch site
Air Force Western Test Range (AFWTR)
Object type
Payload
Rocket body
Debris
Shape & HBR
Unknown shape, 0.1 m
Radar Cross Section
Small (<0.1 m²)

Expand to show TLE details & history
Last TLE update: 5 hours ago

TLE from 5 hours ago
0 THORAD AGENA D DEB
1  5347U 70025KL  26124.20799757  .00000643  00000-0  58748-3 0  9992
2  5347  99.9126  36.6657 0043879 310.6395 206.1600 13.86974777750813
Epoch: 2026-05-04T04:59Z
TLE epoch observation values (Epoch: 2026-05-04T04:59:30.990Z)
Latitude
23.07102°
Longitude
-76.06741°
Altitude
970.821 km
Speed
7.354 km/s
True Right ascension
14h 43m 38s
True Declination
22° 57' 03"
Sunlit
Object was in full shadow at epoch
Visualization orbit readout
Latitude
Unknown
Longitude
Unknown
Altitude
Unknown
Speed
Unknown
Apparent Right ascension
Unknown
Apparent Declination
Unknown
Sunlit
N/A
Visualization observer readout
Local Sidereal Time
17:45:45
Azimuth
Unknown
Elevation
Unknown
Doppler factor
Unknown
Orbital elements
Apogee altitude
968.611 km
Perigee altitude
904.419 km
Semi-major axis
7,314.652 km
Eccentricity
0.00439
Inclination
99.9126°
RAAN
36.6657°
Arg. of periapsis
310.6395°
True anomaly
205.93941°
Mean anomaly
206.16°
Eccentric anomaly
206.04959°
Mean motion
3.46939 °/min
Orbital period
103.76 mins
BSTAR
0.00058748
Loading maneuver chart data...
Computing Atmospheric mass density...

Documentation

Showing up to 5 results
|